[[{"header":{"parameterUnit":"m.s-1","parameterCategory":1,"la1":30.2991,"la2":30.254,"lo1":-89.0895,"lo2":-89.0444,"dy":0.0017,"dx":0.0017,"nx":28,"ny":28,"refTime":"2025-02-05T03:00:00:Z","depth":0,"parameterNumber":2,"parameterNumberName":"U-component_of_WINDS"},"data":[0,0,0,0,0,0,0,0,0,0,0,0,0,0,0,0,0,0,0,0,0,0,0,0,0,0,0,0,0,0,0,0,0,0,0,0,0,0,0,0,0,0,0,0,0,0,0,0,0,0,0,0,0,0,0,0,0,0,-1.3842,-1.3842,0,-1.3888,-1.3889,-1.3889,-1.3858,-1.3857,-1.3855,-1.3854,-1.3901,-1.3903,-1.3906,0,0,0,0,0,0,0,0,0,0,0,0,0,-1.3725,-1.3727,-1.3841,-1.3842,-1.3843,-1.3888,-1.3889,-1.389,-1.3858,-1.3857,-1.3855,-1.3853,-1.39,-1.3903,-1.3906,0,0,0,0,0,0,0,0,0,0,0,0,0,-1.3774,-1.3728,-1.3841,-1.3833,-1.3832,-1.3888,-1.3889,-1.389,-1.3859,-1.3857,-1.3854,-1.3852,-1.3899,-1.3903,-1.3907,-1.3973,0,0,-1.3918,-1.392,0,0,0,0,0,0,0,0,-1.3771,-1.3778,-1.3833,-1.3833,-1.3833,-1.3865,-1.3865,-1.3918,-1.3859,-1.3849,-1.3854,-1.3851,-1.3891,-1.3895,-1.3909,-1.3976,-1.3978,-1.3919,-1.3921,-1.3923,-1.3924,0,0,0,0,0,0,0,-1.3768,-1.3776,-1.386,-1.3834,-1.3834,-1.3826,-1.3831,-1.3875,-1.3881,-1.3849,-1.3847,-1.3853,-1.389,-1.3905,-1.3909,-1.3978,-1.3919,-1.3922,-1.3924,-1.3926,-1.4104,-1.4106,0,0,0,0,0,0,-1.3765,-1.3774,-1.3858,-1.3861,-1.3796,-1.383,-1.3835,-1.3857,-1.388,-1.3882,-1.3855,-1.3852,-1.3899,-1.3905,-1.3911,-1.3991,-1.3923,-1.3926,-1.3929,-1.4102,-1.4104,-1.4107,0,0,0,0,0,0,-1.3763,-1.3773,-1.3857,-1.3817,-1.3827,-1.3835,-1.3859,-1.3859,-1.3874,-1.3885,-1.3886,-1.3869,-1.3898,-1.3905,-1.3958,-1.3993,-1.3928,-1.3932,-1.4099,-1.4102,-1.4106,-1.4153,0,0,0,0,0,0,-1.376,-1.3773,-1.3798,-1.3818,-1.3829,-1.3903,-1.3861,-1.3862,-1.3881,-1.3877,-1.3898,-1.39,-1.3897,-1.3953,-1.3962,-1.3997,-1.3935,-1.4096,-1.41,-1.4105,-1.4148,-1.4157,-1.4165,0,0,0,0,0,-1.3756,-1.3809,-1.3799,-1.381,-1.3861,-1.3905,-1.3912,-1.3908,-1.3884,-1.3909,-1.3917,-1.3899,-1.3988,-1.3959,-1.3969,-1.4005,-1.4093,-1.4099,-1.4104,-1.4144,-1.4155,-1.4165,0,0,0,0,0,0,-1.3791,-1.3811,-1.3801,-1.3862,-1.3882,-1.39,-1.3932,-1.392,-1.3947,-1.3942,-1.3936,-1.3941,-1.3997,-1.4006,-1.3974,-1.4072,-1.4037,-1.4044,-1.4063,-1.4074,-1.4083,-1.4079,-1.3938,0,0,0,0,0,-1.3807,-1.3841,-1.3856,-1.3909,-1.392,-1.3924,-1.3943,-1.3939,-1.396,-1.3968,-1.3979,-1.4,-1.4032,-1.4054,-1.4084,-1.415,-1.4154,-1.418,-1.4188,-1.4195,-1.4202,-1.4238,-1.425,-1.4125,-1.4125,-1.4125,0,0,-1.3838,-1.3853,-1.3875,-1.3916,-1.3932,-1.3968,-1.3932,-1.3971,-1.3998,-1.3974,-1.4025,-1.4034,-1.4057,-1.4116,-1.4143,-1.4126,-1.4238,-1.4202,-1.4208,-1.4211,-1.4245,-1.4257,-1.4267,-1.4129,-1.4128,-1.4127,0,0,-1.3913,-1.3928,-1.3974,-1.399,-1.4015,-1.4018,-1.4029,-1.4049,-1.4054,-1.4106,-1.4089,-1.4121,-1.4177,-1.4194,-1.421,-1.4295,-1.428,-1.4305,-1.435,-1.4385,-1.4395,-1.4404,-1.4434,-1.4445,-1.4312,-1.4312,-1.4312,0,-1.3949,-1.4003,-1.3999,-1.404,-1.4059,-1.404,-1.4087,-1.4103,-1.4136,-1.4149,-1.413,-1.4201,-1.4215,-1.4279,-1.4299,-1.4313,-1.4326,-1.4302,-1.4394,-1.4403,-1.4411,-1.444,-1.4451,-1.4315,-1.4314,-1.4314,-1.4314,0,-1.4046,-1.4083,-1.4117,-1.4151,-1.4174,-1.4217,-1.422,-1.4244,-1.4238,-1.4243,-1.4296,-1.4313,-1.4347,-1.4362,-1.4356,-1.4426,-1.4414,-1.4395,-1.4359,-1.4426,-1.4453,-1.4464,-1.4319,-1.4318,-1.4317,-1.4316,0,0,-1.4143,-1.4175,-1.4188,-1.4203,-1.4229,-1.4258,-1.4302,-1.4336,-1.4357,-1.4381,-1.4417,-1.4466,-1.4448,-1.4467,-1.4463,-1.4494,-1.4561,-1.4471,-1.4471,-1.4487,-1.4639,-1.4654,-1.4666,-1.4551,-1.4553,-1.4555,-1.4637,0,-1.422,-1.4296,-1.4294,-1.4365,-1.44,-1.4384,-1.4422,-1.4442,-1.4449,-1.448,-1.4487,-1.4522,-1.4496,-1.4508,-1.4538,-1.4546,-1.4591,-1.454,-1.4585,-1.4587,-1.4579,-1.4681,-1.4696,-1.4772,-1.4648,-1.465,-1.4651,0,-1.4319,-1.4348,-1.4422,-1.4445,-1.4459,-1.4493,-1.4525,-1.4555,-1.4579,-1.4581,-1.4603,-1.4595,-1.4639,-1.4604,-1.4665,-1.4631,-1.4649,-1.4656,-1.4659,-1.4663,-1.4622,-1.4687,-1.4796,-1.4808,-1.4668,-1.4666,-1.4665,0,-1.4383,-1.444,-1.4492,-1.4506,-1.4533,-1.4558,-1.4571,-1.4592,-1.4613,-1.4641,-1.4655,-1.4688,-1.4705,-1.4731,-1.4732,-1.4706,-1.4795,-1.4758,-1.4798,-1.4798,-1.4817,-1.4815,-1.4931,-1.4829,-1.4829,-1.4829,-1.4829,0,-1.4469,-1.4515,-1.4521,-1.4553,-1.4605,-1.4603,-1.4654,-1.4665,-1.4684,-1.4718,-1.4706,-1.4738,-1.4738,-1.4771,-1.4772,-1.4823,-1.4831,-1.4835,-1.4834,-1.4836,-1.4835,-1.4847,-1.4841,-1.4832,-1.4831,-1.4831,-1.483,0,-1.4549,-1.4555,-1.461,-1.4633,-1.4639,-1.4677,-1.4696,-1.4726,-1.4733,-1.4776,-1.4786,-1.4796,-1.4834,-1.4838,-1.4882,-1.4883,-1.4945,-1.4939,-1.4937,-1.4936,-1.4975,-1.4972,-1.5102,-1.5119,-1.5007,-1.5008,-1.5009,0,-1.4603,-1.4638,-1.4665,-1.4687,-1.4701,-1.4737,-1.4759,-1.4759,-1.4783,-1.4813,-1.484,-1.4878,-1.4907,-1.4969,-1.498,-1.5014,-1.5009,-1.5053,-1.5014,-1.5015,-1.501,-1.5007,-1.5011,-1.506,-1.5061,-1.5062,-1.5063,0,-1.4698,-1.47,-1.4732,-1.4766,-1.4793,-1.482,-1.4845,-1.4863,-1.4867,-1.4894,-1.4934,-1.4957,-1.5003,-1.504,-1.5074,-1.5087,-1.5076,-1.5075,-1.5086,-1.5087,-1.5085,-1.5087,-1.4957,-1.5072,-1.5071,-1.507,-1.507,-1.5069,-1.4766,-1.4797,-1.4822,-1.4858,-1.4878,-1.4902,-1.4932,-1.4943,-1.4976,-1.5014,-1.5012,-1.5056,-1.508,-1.5124,-1.514,-1.5174,-1.516,-1.5176,-1.518,-1.5183,-1.5187,-1.508,-1.5181,-1.518,-1.518,-1.518,-1.518,0,-1.4861,-1.4876,-1.491,-1.4946,-1.4976,-1.4964,-1.4991,-1.5016,-1.5055,-1.5079,-1.5109,-1.5155,-1.5191,-1.5206,-1.5242,-1.5267,-1.5263,-1.5276,-1.5274,-1.5278,-1.5198,-1.5185,-1.5279,-1.5279,-1.5279,-1.5279,-1.5279,-1.5279,-1.4914,-1.4966,-1.4971,-1.5033,-1.5048,-1.5091,-1.5108,-1.513,-1.5149,-1.5201,-1.5232,-1.5242,-1.5262,-1.53,-1.5333,-1.5337,-1.535,-1.5366,-1.5368,-1.5293,-1.5283,-1.5273,-1.5261,-1.5369,-1.537,-1.5444,-1.5445,-1.5445]},{"header":{"parameterUnit":"m.s-1","parameterCategory":1,"la1":30.2991,"la2":30.254,"lo1":-89.0895,"lo2":-89.0444,"dy":0.0017,"dx":0.0017,"nx":28,"ny":28,"refTime":"2025-02-05T03:00:00:Z","depth":0,"parameterNumber":3,"parameterNumberName":"V-component_of_WINDS"},"data":[0,0,0,0,0,0,0,0,0,0,0,0,0,0,0,0,0,0,0,0,0,0,0,0,0,0,0,0,0,0,0,0,0,0,0,0,0,0,0,0,0,0,0,0,0,0,0,0,0,0,0,0,0,0,0,0,0,0,1.0393,1.0393,0,1.0409,1.0409,1.0409,1.0418,1.0418,1.0418,1.0418,1.0433,1.0434,1.0434,0,0,0,0,0,0,0,0,0,0,0,0,0,1.037,1.0371,1.0393,1.0393,1.0393,1.0409,1.0409,1.0409,1.0418,1.0418,1.0418,1.0418,1.0433,1.0434,1.0434,0,0,0,0,0,0,0,0,0,0,0,0,0,1.0383,1.0371,1.0393,1.04,1.0401,1.0409,1.0409,1.0409,1.0418,1.0418,1.0418,1.0418,1.0433,1.0434,1.0434,1.0436,0,0,1.0436,1.0436,0,0,0,0,0,0,0,0,1.0382,1.0383,1.0399,1.0399,1.04,1.0412,1.0406,1.0418,1.0418,1.0411,1.0418,1.0418,1.0426,1.0427,1.043,1.0437,1.0438,1.0436,1.0436,1.0436,1.0437,0,0,0,0,0,0,0,1.0381,1.0383,1.0399,1.0399,1.04,1.0402,1.0404,1.0409,1.0418,1.0412,1.0413,1.0415,1.0426,1.0429,1.043,1.0438,1.0436,1.0436,1.0437,1.0437,1.0448,1.0448,0,0,0,0,0,0,1.0379,1.0382,1.0399,1.04,1.0391,1.0402,1.0404,1.0408,1.0418,1.042,1.0414,1.0415,1.0428,1.043,1.0431,1.0434,1.0436,1.0437,1.0437,1.0448,1.0448,1.0448,0,0,0,0,0,0,1.0379,1.0381,1.0398,1.0391,1.0393,1.0403,1.0407,1.0408,1.0411,1.042,1.0422,1.0416,1.0429,1.043,1.0435,1.0435,1.0437,1.0438,1.0448,1.0448,1.0448,1.0441,0,0,0,0,0,0,1.0378,1.038,1.0381,1.0391,1.0394,1.0402,1.0407,1.0408,1.0412,1.0413,1.0422,1.0423,1.0429,1.0434,1.0436,1.0436,1.0438,1.0448,1.0448,1.0448,1.0442,1.0441,1.0441,0,0,0,0,0,1.0377,1.0379,1.0381,1.0383,1.0395,1.0402,1.0404,1.041,1.0412,1.0413,1.0419,1.0423,1.0435,1.0435,1.0436,1.0437,1.0448,1.0448,1.0448,1.0442,1.0441,1.0441,0,0,0,0,0,0,1.0368,1.038,1.0383,1.0388,1.0394,1.0404,1.0405,1.0409,1.0415,1.0415,1.0423,1.0425,1.0429,1.0433,1.0433,1.044,1.0442,1.0442,1.0437,1.0436,1.0436,1.0435,1.0439,0,0,0,0,0,1.0367,1.0372,1.0382,1.0385,1.0388,1.0396,1.0399,1.0404,1.041,1.0413,1.0419,1.0425,1.043,1.0433,1.0439,1.0442,1.0444,1.0443,1.0443,1.0442,1.0443,1.0445,1.0445,1.0448,1.0448,1.0448,0,0,1.0364,1.0371,1.0373,1.0383,1.0388,1.0393,1.0398,1.0403,1.0406,1.0413,1.0419,1.0423,1.0431,1.0435,1.0437,1.0439,1.0442,1.0442,1.0442,1.0442,1.0445,1.0445,1.0444,1.0448,1.0448,1.0448,0,0,1.0361,1.0367,1.037,1.0376,1.0384,1.039,1.039,1.04,1.0403,1.0409,1.0414,1.0418,1.0427,1.0432,1.0436,1.0435,1.0439,1.0437,1.0434,1.0437,1.0436,1.0436,1.0436,1.0436,1.0437,1.0437,1.0437,0,1.0356,1.0364,1.0371,1.0376,1.038,1.0387,1.0391,1.0396,1.0405,1.0408,1.0409,1.0421,1.0426,1.0432,1.0432,1.0434,1.0435,1.0436,1.0436,1.0436,1.0436,1.0436,1.0436,1.0436,1.0437,1.0437,1.0437,0,1.0358,1.0363,1.0365,1.0374,1.0379,1.0383,1.0391,1.0394,1.0398,1.0404,1.0409,1.0416,1.0423,1.0425,1.0428,1.0431,1.0432,1.0434,1.0437,1.0435,1.0435,1.0435,1.0436,1.0436,1.0436,1.0436,0,0,1.035,1.0364,1.0364,1.0369,1.0378,1.0383,1.0387,1.0394,1.0397,1.0403,1.0407,1.0414,1.0417,1.0421,1.0426,1.0428,1.0428,1.0431,1.0431,1.043,1.0431,1.0429,1.0429,1.043,1.043,1.043,1.0431,0,1.0349,1.0357,1.0364,1.037,1.0375,1.0382,1.0386,1.0392,1.0398,1.0402,1.0408,1.0413,1.0416,1.0419,1.0421,1.0427,1.0428,1.0427,1.0434,1.0434,1.0432,1.0429,1.0427,1.0427,1.0431,1.0431,1.0431,0,1.0348,1.0355,1.0361,1.0371,1.0374,1.0377,1.0384,1.0389,1.0396,1.04,1.0405,1.041,1.0414,1.0417,1.0423,1.0423,1.0426,1.0429,1.0429,1.043,1.0432,1.043,1.0427,1.0427,1.0431,1.0431,1.0431,0,1.0342,1.0353,1.0358,1.0361,1.0373,1.0375,1.038,1.0387,1.0391,1.0397,1.04,1.0407,1.041,1.0415,1.0422,1.0423,1.0428,1.0431,1.0431,1.0431,1.0432,1.0432,1.0429,1.0434,1.0434,1.0434,1.0434,0,1.034,1.0344,1.0355,1.0359,1.0363,1.0371,1.0375,1.038,1.0387,1.0391,1.0398,1.0402,1.041,1.0415,1.042,1.0425,1.0427,1.043,1.0431,1.0429,1.0429,1.0431,1.0432,1.0434,1.0434,1.0434,1.0434,0,1.0334,1.0342,1.0348,1.0359,1.0361,1.0364,1.0373,1.0376,1.0382,1.0387,1.0389,1.0398,1.0404,1.0411,1.0419,1.0423,1.0428,1.0429,1.0425,1.0426,1.0426,1.0426,1.0426,1.0426,1.043,1.043,1.043,0,1.0332,1.0336,1.0346,1.035,1.0355,1.036,1.0365,1.0373,1.0377,1.0386,1.0388,1.0395,1.04,1.041,1.0417,1.0423,1.0425,1.0425,1.0426,1.0425,1.0426,1.0426,1.0426,1.0424,1.0424,1.0424,1.0424,0,1.0329,1.0332,1.0339,1.0346,1.0351,1.0357,1.0364,1.0366,1.0375,1.038,1.0386,1.0391,1.04,1.0406,1.0414,1.0418,1.0423,1.0424,1.0424,1.0422,1.042,1.0422,1.0424,1.0424,1.0424,1.0424,1.0424,1.0424,1.0325,1.0328,1.0337,1.0343,1.0349,1.0355,1.0359,1.0365,1.0371,1.0379,1.0383,1.039,1.0397,1.0408,1.0412,1.0418,1.0419,1.042,1.042,1.042,1.042,1.0419,1.0419,1.0419,1.0419,1.0419,1.0419,0,1.0322,1.0328,1.0334,1.0343,1.0348,1.0352,1.036,1.0364,1.0369,1.0376,1.0382,1.039,1.0396,1.0404,1.0411,1.0413,1.0416,1.0415,1.0415,1.0416,1.0418,1.0417,1.0413,1.0413,1.0413,1.0413,1.0413,1.0413,1.0321,1.0327,1.0332,1.034,1.0346,1.0353,1.0357,1.0362,1.0368,1.0376,1.0382,1.0387,1.0394,1.0402,1.0408,1.041,1.0412,1.0411,1.0414,1.0415,1.0416,1.0416,1.0415,1.0412,1.0412,1.0412,1.0412,1.0412]}]]